This demonstration page uses our WeatherBlox Daily Observations layout. Learn more.

Left ArrowRight Arrow

39.92423, -83.80882

Hourly Observations for February 11, 2022

Temp ( °F °C ) Dew Point ( °F °C ) Humidity (%) Winds ( mph kmh ) Pressure ( in mb ) Visibility ( mi km ) Precip ( " mm )
12:56 am 00:56 Clear 30 -1.1 26 -3.3 85 85 S 6 9 29.90 1012 10 16 0.00 0.00
1:56 am 01:56 Clear 31 -0.6 25 -3.9 79 79 S 7 11 29.88 1012 10 16 0.00 0.00
2:56 am 02:56 Clear 32 0 25 -3.9 75 75 S 8 13 29.85 1011 10 16 0.00 0.00
3:56 am 03:56 Clear 33 0.6 25 -3.9 72 72 S 10 17 29.82 1010 10 16 0.00 0.00
4:56 am 04:56 Clear 33 0.6 25 -3.9 72 72 S 13 20 29.79 1009 10 16 0.00 0.00
5:56 am 05:56 Clear 35 1.7 25 -3.9 67 67 SSW 9 15 29.78 1008 10 16 0.00 0.00
6:56 am 06:56 Clear 36 2.2 26 -3.3 67 67 SSW 13 20 29.77 1008 10 16 0.00 0.00
7:56 am 07:56 Sunny 38 3.3 26 -3.3 62 62 SSW 13 20 29.75 1007 10 16 0.00 0.00
8:56 am 08:56 Sunny 38 3.3 26 -3.3 62 62 SSW 9 15 29.75 1008 10 16 0.00 0.00
9:56 am 09:56 Cloudy 41 5 27 -2.8 57 57 SSW 14 22 29.74 1007 10 16 0.00 0.00
10:56 am 10:56 Cloudy 42 5.6 28 -2.2 58 58 SSW 12 19 29.73 1007 10 16 0.00 0.00
11:56 am 11:56 Cloudy 44 6.7 29 -1.7 55 55 SW 14 22 29.72 1007 10 16 0.00 0.00
12:56 pm 12:56 Cloudy 46 7.8 30 -1.1 54 54 SW 13 20 29.71 1006 10 16 0.00 0.00
1:56 pm 13:56 Cloudy 45 7.2 30 -1.1 56 56 SW 14 22 29.70 1006 10 16 0.00 0.00
2:56 pm 14:56 Cloudy 47 8.3 31 -0.6 54 54 SW 15 24 29.70 1006 10 16 0.00 0.00
3:56 pm 15:56 Cloudy 48 8.9 32 0 54 54 WSW 18 30 29.71 1006 10 16 0.00 0.00
4:56 pm 16:56 Cloudy 46 7.8 32 0 58 58 WSW 17 28 29.74 1007 10 16 0.00 0.00
5:56 pm 17:56 Cloudy with Light Rain 43 6.1 37 2.8 80 80 W 18 30 29.79 1009 9 14 0.00 0.00
6:56 pm 18:56 Cloudy with Light Rain 40 4.4 40 4.4 100 100 WSW 16 26 29.82 1010 10 16 0.00 0.00
7:42 pm 19:42 Cloudy 39 4 N/A N/A WSW 14 22 29.86 1011 10 16 0.00 0.00
7:51 pm 19:51 Cloudy with Light Rain 39 4 N/A N/A W 13 20 29.87 1011 10 16 0.00 0.00
7:56 pm 19:56 Cloudy with Light Rain 39 4 N/A N/A W 13 20 29.85 1011 10 16 0.00 0.00
8:32 pm 20:32 Cloudy 39 4 N/A N/A W 14 22 29.88 1012 10 16 0.00 0.00
8:56 pm 20:56 Cloudy 37 3 N/A N/A W 14 22 29.88 1012 10 16 0.00 0.00
9:56 pm 21:56 Cloudy 37 3 N/A N/A WSW 12 19 29.88 1012 10 16 0.00 0.00
10:56 pm 22:56 Clear 38 3.3 38 3.3 100 100 WSW 14 22 29.89 1012 10 16 0.00 0.00
11:56 pm 23:56 Clear 37 3 N/A N/A SW 10 17 29.90 1013 10 16 0.00 0.00

Powered by AerisWeather